Location: Del Amo
(33.8464°N, 118.2104°W)
Time: 03:19:57
(UTC+00:00)

SR - Pass Details

Date: 23 September 2024
Orbit: 578 x 855 km, 66.7° (Epoch: 02 October)

Event Time Altitude Azimuth Distance (km) Brightness Sun altitude
Rises 03:30:58 0° 346° (NNW) 2,994 ? -21.9°
Reaches altitude 10° 03:33:30 10° 358° (N) 2,125 ? -22.4°
Enters shadow 03:36:28 25° 34° (NNE) 1,404 ? -23.0°
Maximum altitude 03:37:39 28° 58° (ENE) 1,334 - -23.2°
Drops below altitude 10° 03:42:05 10° 116° (ESE) 2,275 - -24.1°
Sets 03:44:52 0° 128° (SE) 3,247 - -24.6°
